Precipitable_Water
1.93 1.82 1.96 2.03 2.01 2.04 1.98 1.94 1.98 1.87 1.89 1.94 1.96 2.03 2.04 2.05 2.09 1.98 2.01 1.96 1.97 2.06 2.09 2.01 1.85 1.87 1.90 1.83 1.84 1.84 1.92 1.74 1.65 1.66 1.62 1.61 1.58 1.58 1.65 1.61 1.56 1.55 1.53
1.91 1.78 1.86 1.94 1.93 1.93 1.94 2.00 2.11 2.06 2.10 2.03 1.97 2.01 2.06 2.07 2.10 2.09 1.99 2.02 2.01 1.98 2.05 2.05 1.89 1.91 1.88 1.98 1.88 1.99 1.97 1.85 1.66 1.64 1.65 1.59 1.53 1.50 1.49 1.39 1.31 1.28 1.25
2.05 1.94 1.88 1.91 1.89 2.03 1.98 2.04 2.09 2.12 2.13 2.09 2.02 2.02 2.05 2.04 2.07 2.11 2.13 2.09 2.05 1.96 2.03 2.02 1.94 1.84 1.95 1.84 2.01 1.99 2.09 1.96 1.78 1.60 1.63 1.59 1.47 1.41 1.34 1.29 1.22 1.19 1.17
2.06 2.06 1.98 2.04 2.06 2.02 2.09 2.05 2.01 2.04 2.08 2.02 1.96 2.00 2.04 2.09 2.04 2.07 2.07 2.06 2.08 1.99 1.98 2.00 2.03 1.89 1.93 2.01 1.98 2.01 1.98 2.06 1.90 1.70 1.58 1.60 1.53 1.40 1.31 1.25 1.20 1.16 1.14
2.11 2.11 2.09 2.08 2.12 2.02 1.97 1.97 1.96 2.00 1.98 2.02 2.01 1.98 2.02 2.04 2.05 2.07 2.05 2.03 2.03 2.07 2.14 2.04 1.92 2.03 1.98 2.05 2.05 2.01 2.00 1.99 1.99 1.85 1.63 1.57 1.57 1.48 1.35 1.29 1.24 1.18 1.14
2.07 2.04 2.07 2.06 2.09 2.07 1.99 1.99 1.92 2.00 1.98 2.02 1.99 2.00 2.09 2.08 2.12 2.12 2.12 2.19 2.19 2.13 2.14 2.13 1.87 1.89 2.02 2.04 2.07 2.07 1.98 1.99 2.00 1.97 1.78 1.58 1.52 1.49 1.41 1.33 1.28 1.23 1.15
1.98 1.96 1.95 1.96 2.01 1.98 1.96 2.00 1.98 1.91 1.97 2.03 1.92 1.93 2.03 2.09 2.09 2.14 2.20 2.20 2.14 2.14 2.15 2.14 2.16 2.02 1.92 1.97 1.99 2.07 1.99 1.99 1.99 2.00 1.97 1.74 1.59 1.47 1.43 1.38 1.31 1.29 1.25
1.85 1.85 1.84 1.86 1.91 1.92 1.94 1.96 1.95 1.88 1.94 2.06 1.86 1.86 1.66 1.80 2.01 2.10 2.20 2.17 2.13 2.15 2.14 2.15 2.19 2.13 2.11 2.00 1.91 1.94 1.97 1.99 2.05 2.01 1.99 1.92 1.73 1.60 1.47 1.39 1.33 1.27 1.26
1.85 1.85 1.85 1.84 1.84 1.90 1.86 1.91 1.93 1.89 1.81 2.03 2.05 1.86 1.65 1.55 1.79 2.05 2.10 2.20 2.18 2.17 2.21 2.17 2.17 2.19 2.19 2.02 1.95 1.85 1.83 1.92 2.00 2.08 2.03 1.98 1.90 1.74 1.64 1.50 1.37 1.32 1.26
1.78 1.81 1.72 1.74 1.78 1.82 1.83 1.89 1.99 2.00 2.03 1.92 2.05 2.09 2.09 1.99 1.73 1.64 2.01 2.12 2.25 2.19 2.19 2.20 2.19 2.21 2.19 2.16 2.10 1.99 1.82 1.78 1.87 1.98 2.08 2.03 1.94 1.89 1.76 1.69 1.55 1.41 1.36
1.75 1.75 1.79 1.75 1.71 1.76 1.81 1.88 1.94 2.00 2.05 2.03 2.05 2.03 1.96 1.90 1.91 1.78 1.64 1.83 2.08 2.18 2.24 2.24 2.24 2.24 2.28 2.21 2.15 2.05 1.94 1.81 1.74 1.79 1.90 1.97 1.99 1.90 1.87 1.77 1.73 1.63 1.47
1.74 1.80 1.80 1.77 1.70 1.68 1.75 1.80 1.85 1.94 2.03 2.06 2.04 2.04 1.93 1.78 1.75 1.78 1.72 1.77 1.84 2.04 2.17 2.24 2.19 2.24 2.24 2.21 2.21 2.16 2.08 1.95 1.83 1.77 1.75 1.82 1.89 1.94 1.92 1.86 1.80 1.75 1.70
1.61 1.66 1.78 1.78 1.76 1.71 1.76 1.79 1.83 1.92 2.00 1.98 1.98 1.94 2.03 2.00 1.99 2.00 1.95 1.86 1.78 1.98 2.05 2.17 2.20 2.23 2.29 2.24 2.19 2.20 2.15 2.06 1.94 1.86 1.77 1.81 1.84 1.91 1.91 1.89 1.85 1.83 1.78
1.78 1.86 1.90 1.94 1.92 1.95 1.98 1.95 1.96 1.98 2.02 2.02 1.97 1.97 2.03 2.08 2.10 2.11 1.96 1.94 1.75 1.81 1.94 1.95 2.19 2.24 2.28 2.25 2.23 2.18 2.10 2.06 1.96 1.93 2.02 1.89 1.88 1.96 1.96 1.98 1.96 1.88 1.83
1.81 1.82 1.94 1.91 1.92 1.91 2.04 1.99 1.94 1.87 1.99 2.02 1.99 2.01 2.03 2.04 2.19 2.14 2.09 2.01 1.86 1.66 1.76 1.95 1.96 2.19 2.26 2.29 2.25 2.24 2.19 2.13 2.01 1.96 1.97 1.95 1.96 2.02 2.00 2.02 2.04 2.01 1.90
1.79 1.79 1.79 1.90 1.95 1.95 1.96 1.98 1.94 1.97 2.06 2.03 2.07 2.06 1.99 2.01 2.05 2.03 2.01 2.00 1.95 1.92 1.76 2.01 2.06 2.12 2.30 2.33 2.32 2.28 2.26 2.24 2.12 2.03 1.94 1.91 1.92 1.93 1.94 1.96 1.97 1.99 1.95
1.82 1.81 1.83 1.87 1.85 1.92 1.98 2.00 2.01 2.00 2.00 1.97 1.99 1.97 1.88 1.96 1.89 1.91 1.93 1.93 1.89 1.87 1.76 1.95 2.10 2.28 2.23 2.26 2.28 2.37 2.32 2.33 2.30 2.16 2.05 1.94 1.91 1.92 1.94 1.94 1.95 1.95 1.93
1.83 1.79 1.77 1.75 1.76 1.82 1.91 1.85 1.98 2.01 1.94 1.84 1.84 1.82 1.82 1.84 1.82 1.83 1.76 1.79 1.84 1.84 1.68 1.58 1.83 1.84 1.92 2.02 2.06 2.17 2.31 2.36 2.34 2.28 2.19 2.08 1.93 1.90 1.91 1.95 1.92 1.88 1.87
1.75 1.77 1.72 1.68 1.69 1.73 1.84 1.92 1.94 1.92 1.89 1.84 1.79 1.74 1.78 1.75 1.67 1.66 1.65 1.68 1.70 1.71 1.66 1.55 1.52 1.73 1.88 1.89 1.91 2.03 2.06 2.12 2.26 2.30 2.31 2.24 2.18 2.04 1.98 1.98 2.01 2.02 2.01
1.63 1.69 1.69 1.70 1.76 1.84 1.85 1.84 1.87 1.88 1.85 1.76 1.77 1.79 1.82 1.75 1.67 1.65 1.65 1.65 1.63 1.57 1.55 1.48 1.49 1.58 1.65 1.71 1.69 1.63 1.61 1.84 1.99 2.17 2.21 2.26 2.29 2.26 2.23 2.25 2.21 2.16 2.17
1.64 1.71 1.71 1.73 1.76 1.85 1.86 1.86 1.85 1.77 1.71 1.71 1.76 1.81 1.82 1.79 1.82 1.77 1.69 1.65 1.62 1.55 1.52 1.51 1.50 1.49 1.53 1.52 1.44 1.48 1.40 1.51 1.67 1.79 1.80 1.90 2.06 2.19 2.23 2.28 2.33 2.27 2.24
1.71 1.68 1.64 1.65 1.66 1.70 1.79 1.82 1.79 1.71 1.70 1.67 1.65 1.70 1.74 1.75 1.75 1.79 1.77 1.76 1.72 1.58 1.49 1.47 1.47 1.44 1.42 1.47 1.55 1.49 1.46 1.35 1.28 1.71 1.58 1.56 1.78 1.75 1.98 2.19 2.22 2.20 2.27
1.82 1.69 1.64 1.64 1.60 1.64 1.69 1.74 1.74 1.70 1.65 1.64 1.56 1.58 1.56 1.58 1.66 1.69 1.75 1.78 1.74 1.74 1.72 1.64 1.50 1.46 1.47 1.54 1.59 1.48 1.51 1.42 1.37 1.53 1.54 1.32 1.49 1.41 1.66 1.77 1.84 1.93 1.99
1.67 1.69 1.68 1.64 1.66 1.68 1.70 1.70 1.71 1.63 1.66 1.63 1.57 1.56 1.48 1.40 1.48 1.49 1.49 1.53 1.58 1.62 1.71 1.74 1.70 1.67 1.69 1.79 1.80 1.79 1.72 1.65 1.69 1.65 1.66 1.27 1.46 1.42 1.60 1.61 1.62 1.65 1.71
1.65 1.62 1.66 1.71 1.66 1.71 1.74 1.70 1.68 1.58 1.61 1.63 1.66 1.65 1.55 1.48 1.52 1.51 1.47 1.40 1.44 1.55 1.76 1.87 1.92 1.94 1.92 1.87 1.85 1.77 1.58 1.55 1.43 1.48 1.70 1.60 1.55 1.53 1.64 1.68 1.77 1.78 1.78
1.94 1.80 1.70 1.72 1.71 1.63 1.76 1.75 1.64 1.49 1.38 1.46 1.50 1.50 1.61 1.57 1.60 1.61 1.48 1.44 1.38 1.45 1.60 1.74 1.87 1.89 1.89 1.87 1.81 1.70 1.62 1.47 1.46 1.43 1.68 1.60 1.59 1.62 1.46 1.65 1.66 1.77 1.78
Wind_Speed
8 8 8 8 7 7 7 7 5 4 2 1 2 1 1 3 5 5 6 6 6 7 7 6 7 7 7 6 5 4 4 3 4 4 5 5 6 7 7 7 8 8 9
8 8 8 7 7 6 6 5 3 1 1 0 2 2 3 4 5 6 7 8 8 8 9 8 8 8 8 8 7 6 6 4 5 5 6 6 7 7 7 8 8 8 9
8 7 7 7 6 6 5 3 2 3 2 2 1 1 3 4 5 7 8 9 9 10 10 10 10 10 10 9 8 7 7 9 7 7 7 7 7 7 8 8 8 8 8
8 7 7 7 6 6 5 3 1 2 1 2 1 2 3 3 4 6 8 8 9 10 12 12 12 12 11 11 10 8 7 9 10 8 8 8 8 8 8 8 7 7 8
8 8 8 8 7 6 5 4 3 3 3 3 3 3 4 4 5 5 7 8 10 10 12 15 14 13 13 13 12 10 8 10 11 10 9 9 9 9 9 8 8 7 7
9 9 9 8 8 8 7 6 5 5 5 4 5 5 4 5 5 6 7 8 10 11 10 13 15 15 15 15 13 13 11 11 13 13 11 11 11 10 10 9 9 8 7
10 9 9 9 9 9 8 7 6 6 6 6 6 6 8 8 7 6 6 6 9 9 11 10 13 15 17 16 16 14 14 14 14 14 14 13 12 12 12 11 11 10 8
11 10 10 9 9 9 9 9 8 6 7 7 6 5 6 6 6 7 7 6 7 9 11 11 12 13 16 17 17 15 15 16 16 16 16 15 14 14 14 13 13 12 11
12 11 10 10 9 9 10 9 9 8 6 6 6 6 5 5 5 6 8 9 8 9 9 12 13 13 14 17 18 17 16 17 18 19 18 18 17 16 16 15 15 15 14
13 12 11 11 11 10 9 9 9 9 7 6 5 7 8 7 6 7 7 8 9 10 9 10 12 13 15 17 19 21 19 19 19 20 20 19 20 19 18 17 17 16 16
15 14 13 12 12 11 10 10 10 10 10 9 8 7 8 7 7 8 9 8 7 9 10 9 10 11 13 16 16 18 19 19 20 21 21 22 22 21 21 20 19 18 18
15 15 14 13 13 12 12 11 11 11 11 11 11 11 10 9 9 9 10 10 10 9 9 10 10 10 11 14 17 18 18 20 21 22 23 23 23 23 23 23 22 21 20
15 15 14 14 14 14 14 13 13 13 12 12 13 13 13 14 13 13 13 13 12 11 11 11 11 11 12 12 15 19 20 19 20 22 23 24 24 23 24 24 25 24 23
16 15 15 15 15 14 14 14 14 14 14 14 15 15 14 15 15 14 14 13 13 12 12 13 12 12 11 11 13 15 17 20 20 20 22 24 24 24 25 25 26 27 26
16 16 16 15 16 16 16 15 15 15 14 15 15 15 15 15 14 14 13 12 11 11 12 11 12 12 12 12 12 13 15 18 20 22 23 25 26 25 25 26 26 26 28
16 16 16 16 16 16 16 16 16 15 14 14 14 14 14 14 13 13 13 12 11 11 12 10 10 10 10 11 11 13 14 15 19 21 23 25 26 26 26 27 27 27 28
16 15 15 15 17 17 17 17 16 15 14 13 13 13 14 14 13 12 12 11 10 9 9 9 8 10 11 10 11 12 13 14 15 19 21 23 25 27 27 28 28 28 29
16 16 15 15 15 15 15 15 14 13 13 12 11 11 11 11 11 11 10 10 10 9 8 7 7 7 9 8 9 11 13 13 14 15 20 21 23 25 27 27 28 28 29
16 16 15 15 15 15 14 14 13 12 11 11 11 11 10 9 9 9 9 9 9 10 10 9 8 6 6 6 7 8 9 11 14 15 17 18 21 23 25 27 29 30 29
16 16 16 16 15 14 13 13 12 11 11 11 10 9 9 8 8 7 7 8 8 8 9 9 9 9 9 8 8 9 9 9 11 13 16 18 20 22 24 26 28 29 30
15 15 15 16 15 15 14 14 13 12 12 11 10 9 9 8 8 8 8 8 8 8 8 8 9 10 10 10 10 9 10 10 11 11 13 14 17 20 23 27 28 29 29
17 16 16 16 16 16 15 15 14 14 13 12 11 10 10 10 10 10 10 10 10 9 9 8 9 9 10 10 11 12 12 12 12 12 12 13 14 16 18 20 23 27 29
19 17 17 16 16 16 16 16 15 14 14 12 12 11 11 11 11 10 11 10 11 11 11 10 10 10 10 11 11 12 13 13 14 15 16 17 17 18 18 19 21 22 24
23 22 21 20 19 18 18 18 17 17 16 15 14 13 12 11 11 12 12 13 13 13 13 13 13 12 12 12 12 12 13 13 14 15 15 16 17 19 19 20 21 22 23
26 26 25 25 24 22 22 21 20 19 19 17 16 15 15 14 13 13 14 15 15 15 15 15 14 14 14 14 15 16 16 16 16 16 16 17 17 17 18 18 19 19 20
30 30 30 29 28 27 26 25 24 23 23 22 20 20 19 18 18 17 16 16 17 18 17 18 18 18 18 18 18 18 18 18 19 19 19 18 19 19 19 20 19 21 21
Wind_Direction
148 147 148 147 141 139 133 125 123 129 143 174 181 190 206 201 207 212 207 211 213 211 210 208 205 202 199 197 192 184 173 162 164 157 153 148 143 136 127 123 120 118 114
152 154 156 157 153 148 146 138 117 115 124 134 232 252 254 243 236 235 232 233 232 226 223 217 216 216 212 210 207 205 210 207 188 174 163 157 151 144 137 130 125 123 121
174 168 167 169 170 165 160 156 140 115 107 46 11 299 258 258 254 245 244 243 237 231 229 226 221 219 220 220 218 225 233 226 198 186 177 170 163 157 150 141 134 130 128
190 186 183 185 182 180 181 183 174 184 228 353 311 333 300 278 273 258 250 248 238 235 238 233 228 227 225 224 223 230 239 208 197 192 188 181 176 171 166 159 150 143 138
199 199 198 198 202 207 215 222 241 242 257 291 289 310 309 294 284 279 264 251 241 243 250 238 234 235 234 231 227 229 228 210 208 201 197 194 191 188 183 177 170 162 155
208 207 209 214 218 224 228 235 242 254 259 278 289 296 294 302 297 285 265 261 252 250 253 239 236 239 239 237 233 228 227 223 214 212 208 204 202 199 196 192 188 182 177
214 216 218 223 223 226 234 237 244 254 263 277 287 291 288 283 289 284 287 273 251 252 248 242 239 241 240 240 237 231 228 223 219 217 213 211 210 208 207 205 202 200 198
218 222 226 228 228 231 233 236 242 261 268 273 276 287 306 300 286 281 282 277 271 260 257 248 248 248 244 237 236 232 229 226 224 221 219 218 217 215 215 215 214 213 213
222 227 230 229 230 232 234 236 241 248 267 284 261 267 296 297 307 303 291 273 275 273 266 255 255 253 249 240 236 232 234 230 228 225 226 224 222 221 221 222 222 222 223
227 229 233 230 231 235 237 237 241 245 252 253 290 269 276 287 292 308 313 293 280 274 275 265 260 263 247 242 238 235 235 231 230 227 227 227 224 225 225 226 227 228 229
230 232 233 234 234 236 239 239 244 245 247 256 264 284 287 284 303 293 303 311 300 281 273 272 271 265 253 241 240 231 232 233 231 230 227 229 229 229 229 230 232 232 234
232 233 234 236 237 238 241 245 250 252 254 258 265 269 276 282 289 294 297 295 295 290 282 271 274 263 261 246 240 231 233 233 234 235 231 230 230 231 233 234 235 236 237
234 235 237 239 242 244 247 249 251 256 257 261 265 269 273 275 282 286 290 292 289 282 281 274 274 270 263 255 243 237 236 237 238 233 232 231 231 234 235 237 237 238 239
239 239 241 243 243 244 246 250 254 258 261 265 268 271 275 278 281 281 286 287 286 279 279 273 274 270 263 256 247 241 237 237 238 237 234 231 232 237 239 240 240 240 240
241 241 242 245 244 246 251 252 255 258 261 266 271 272 275 279 281 282 283 284 280 280 281 278 268 266 263 256 251 245 241 241 240 239 237 235 238 241 241 241 243 243 243
241 243 244 245 246 248 250 253 256 257 260 266 272 274 277 279 279 281 281 279 280 280 277 277 271 266 259 257 250 248 249 248 243 242 241 240 241 242 243 244 245 247 247
240 242 246 248 248 249 252 254 255 258 258 267 271 276 279 277 274 276 277 275 273 279 282 277 281 261 257 255 253 252 250 254 253 245 245 242 243 244 244 247 248 250 252
240 244 247 249 250 248 250 252 249 256 255 260 270 277 281 278 271 270 268 269 268 268 270 278 279 278 259 254 259 259 256 260 255 256 247 247 247 246 246 249 251 252 253
241 244 246 248 249 249 248 249 249 251 250 259 270 276 281 278 273 269 267 269 268 266 264 268 271 271 258 270 276 267 266 265 257 261 253 252 251 250 251 253 253 254 255
240 242 243 245 245 246 244 242 242 245 253 260 268 271 274 271 269 267 268 271 268 268 267 265 267 266 262 269 276 275 280 277 273 266 261 259 258 256 256 258 257 256 257
241 241 243 243 242 241 241 241 241 246 252 256 262 267 270 268 265 267 267 266 268 269 268 269 274 270 264 268 271 278 280 283 282 277 272 270 268 265 263 261 260 258 260
242 243 243 242 241 240 240 240 242 245 249 253 258 263 266 268 265 266 261 265 262 265 268 273 277 276 270 270 273 278 280 280 281 280 279 279 277 276 273 269 265 262 262
244 242 241 239 239 239 238 239 242 245 247 251 256 259 265 269 263 263 261 264 263 264 267 272 277 274 274 274 278 280 281 279 278 281 282 280 280 279 277 275 273 270 267
245 244 243 242 242 244 243 244 245 246 248 251 254 258 262 267 264 261 263 262 263 268 270 274 274 275 277 279 281 283 284 284 286 285 284 285 283 281 281 279 277 274 273
248 247 246 245 245 247 246 247 247 250 249 253 256 257 261 264 267 264 263 263 264 269 271 269 273 274 274 276 279 283 282 281 287 286 286 285 288 285 284 285 284 281 279
252 249 248 247 247 248 248 248 248 250 249 253 257 258 260 263 265 265 265 265 266 268 269 271 272 274 274 278 281 283 283 282 283 286 284 283 287 286 285 283 282 285 283